[[{"header":{"parameterUnit":"m.s-1","parameterCategory":1,"la1":30.2991,"la2":30.254,"lo1":-89.0895,"lo2":-89.0444,"dy":0.0017,"dx":0.0017,"nx":28,"ny":28,"refTime":"2025-03-21T03:00:00:Z","depth":0,"parameterNumber":2,"parameterNumberName":"U-component_of_WINDS"},"data":[0,0,0,0,0,0,0,0,0,0,0,0,0,0,0,0,0,0,0,0,0,0,0,0,0,0,0,0,0,0,0,0,0,0,0,0,0,0,0,0,0,0,0,0,0,0,0,0,0,0,0,0,0,0,0,0,0,0,0.1134,0.1135,0,0.1204,0.1205,0.1206,0.1239,0.1239,0.1239,0.1239,0.1311,0.1313,0.1315,0,0,0,0,0,0,0,0,0,0,0,0,0,0.1029,0.1031,0.1134,0.1135,0.1136,0.1204,0.1205,0.1206,0.1239,0.1239,0.1239,0.1239,0.131,0.1313,0.1315,0,0,0,0,0,0,0,0,0,0,0,0,0,0.1084,0.1032,0.1134,0.1161,0.1164,0.1204,0.1205,0.1206,0.1239,0.1239,0.1239,0.1239,0.131,0.1313,0.1315,0.1334,0,0,0.1324,0.1325,0,0,0,0,0,0,0,0,0.1081,0.1088,0.1156,0.1159,0.1163,0.1213,0.1194,0.1249,0.1239,0.1211,0.1239,0.1239,0.1278,0.1284,0.1297,0.1337,0.134,0.1324,0.1326,0.1327,0.1328,0,0,0,0,0,0,0,0.1077,0.1086,0.1162,0.1157,0.1161,0.1169,0.1177,0.1205,0.1244,0.1213,0.1216,0.1224,0.128,0.1294,0.1299,0.1341,0.1324,0.1327,0.1329,0.133,0.1398,0.1398,0,0,0,0,0,0,0.1069,0.1082,0.116,0.1164,0.1121,0.1171,0.118,0.1197,0.1244,0.1251,0.1224,0.1225,0.1289,0.1296,0.1302,0.1325,0.1327,0.133,0.1332,0.1398,0.1398,0.1398,0,0,0,0,0,0,0.1067,0.1076,0.1157,0.1124,0.1135,0.1173,0.1192,0.1198,0.1212,0.1252,0.1259,0.1231,0.129,0.1298,0.1325,0.1328,0.1331,0.1334,0.1398,0.1398,0.1398,0.1373,0,0,0,0,0,0,0.1064,0.1075,0.1083,0.1124,0.1136,0.1179,0.1192,0.12,0.1217,0.1219,0.126,0.1267,0.129,0.1321,0.1328,0.1332,0.1336,0.1398,0.1398,0.1398,0.1374,0.1372,0.1371,0,0,0,0,0,0.106,0.1073,0.1083,0.1092,0.1147,0.1179,0.1187,0.1213,0.1217,0.1225,0.125,0.1265,0.1326,0.1323,0.1332,0.1337,0.1398,0.1398,0.1398,0.1375,0.1373,0.1371,0,0,0,0,0,0,0.1032,0.1079,0.109,0.1118,0.1144,0.1185,0.1196,0.1211,0.1237,0.1238,0.127,0.1279,0.1303,0.1323,0.1318,0.1356,0.1363,0.1365,0.1343,0.1341,0.134,0.1335,0.1339,0,0,0,0,0,0.1029,0.1052,0.1092,0.1112,0.1125,0.1158,0.1173,0.1191,0.122,0.1231,0.1258,0.1286,0.1311,0.1327,0.1353,0.1377,0.1385,0.1384,0.1383,0.1382,0.1383,0.1396,0.1395,0.1399,0.1399,0.1399,0,0,0.1024,0.1052,0.1065,0.1107,0.113,0.1152,0.1167,0.1191,0.1207,0.1235,0.1263,0.1283,0.1316,0.1341,0.1353,0.1358,0.1384,0.1382,0.138,0.1383,0.1396,0.1396,0.1395,0.1399,0.1399,0.1399,0,0,0.1025,0.1048,0.1067,0.1089,0.1123,0.1145,0.1149,0.1188,0.1202,0.123,0.1251,0.1271,0.1314,0.1336,0.1353,0.1359,0.1374,0.1367,0.136,0.1372,0.1372,0.1372,0.1374,0.1374,0.1368,0.1368,0.1368,0,0.1013,0.1048,0.1075,0.1097,0.1115,0.114,0.1159,0.1179,0.1219,0.123,0.1235,0.1288,0.1312,0.1342,0.1344,0.1357,0.1362,0.1363,0.137,0.137,0.137,0.1372,0.1373,0.1367,0.1367,0.1367,0.1367,0,0.1032,0.1056,0.1067,0.1105,0.1123,0.1143,0.1173,0.1189,0.1204,0.1225,0.1252,0.1281,0.1312,0.132,0.1336,0.1352,0.1354,0.1364,0.1372,0.1368,0.1371,0.1372,0.1365,0.1366,0.1366,0.1366,0,0,0.1019,0.107,0.1074,0.1091,0.1129,0.1148,0.1168,0.1198,0.1211,0.1237,0.1255,0.1289,0.1298,0.1317,0.1335,0.1346,0.1348,0.1354,0.1355,0.1351,0.1366,0.1359,0.1359,0.1357,0.1358,0.1358,0.1363,0,0.1026,0.1064,0.1088,0.1117,0.1138,0.1161,0.1179,0.1204,0.1223,0.1244,0.1265,0.1289,0.1299,0.131,0.1322,0.1345,0.1351,0.1345,0.1374,0.1375,0.1365,0.1361,0.1354,0.1357,0.1364,0.1365,0.1365,0,0.1039,0.1064,0.1094,0.1128,0.1138,0.1154,0.1183,0.1202,0.123,0.1244,0.1263,0.1281,0.1303,0.1308,0.1339,0.1334,0.1347,0.136,0.136,0.1365,0.137,0.1365,0.1359,0.136,0.1367,0.1366,0.1366,0,0.1026,0.1067,0.109,0.1104,0.1145,0.1155,0.1172,0.1201,0.1216,0.1241,0.1251,0.1278,0.1293,0.1313,0.1337,0.1339,0.1365,0.1372,0.1376,0.1375,0.1381,0.138,0.1377,0.1389,0.1389,0.1389,0.1389,0,0.103,0.1048,0.1085,0.1099,0.1119,0.1146,0.1165,0.1184,0.1208,0.1226,0.1248,0.1264,0.1295,0.1315,0.1334,0.1355,0.1362,0.1373,0.1378,0.1371,0.137,0.138,0.1381,0.1389,0.1389,0.1389,0.1389,0,0.102,0.1045,0.1072,0.1108,0.1117,0.113,0.1161,0.1175,0.1195,0.1217,0.1224,0.1255,0.1279,0.1305,0.1338,0.1351,0.1371,0.1378,0.1361,0.1364,0.1366,0.1366,0.137,0.1372,0.1382,0.1382,0.1382,0,0.1022,0.1036,0.1072,0.1086,0.1102,0.1124,0.114,0.1166,0.1181,0.1213,0.1223,0.1249,0.1271,0.1308,0.1333,0.1358,0.1366,0.1366,0.137,0.1362,0.1366,0.1365,0.1366,0.1365,0.1365,0.1364,0.1364,0,0.1021,0.1033,0.1055,0.1081,0.1099,0.1121,0.1144,0.1153,0.1184,0.12,0.1224,0.1241,0.1274,0.1299,0.1327,0.1344,0.1359,0.1362,0.1365,0.1358,0.1348,0.1353,0.1358,0.1363,0.1363,0.1363,0.1363,0.1363,0.1017,0.103,0.1057,0.1081,0.11,0.112,0.1135,0.1156,0.1177,0.1206,0.122,0.1244,0.127,0.1308,0.1325,0.1344,0.1349,0.1352,0.1353,0.1353,0.1351,0.1344,0.1349,0.1349,0.1349,0.1349,0.135,0,0.1018,0.1036,0.1057,0.1088,0.1106,0.1117,0.1142,0.1156,0.1178,0.12,0.1221,0.1248,0.1272,0.1298,0.1323,0.1333,0.134,0.1339,0.1339,0.1342,0.1346,0.1341,0.1332,0.1332,0.1332,0.1332,0.1332,0.1332,0.102,0.1042,0.1056,0.1088,0.1106,0.113,0.1143,0.1161,0.1179,0.1209,0.1228,0.1245,0.1269,0.1295,0.1317,0.1324,0.1332,0.1329,0.1337,0.1341,0.1342,0.1343,0.1339,0.133,0.133,0.1332,0.1332,0.1332]},{"header":{"parameterUnit":"m.s-1","parameterCategory":1,"la1":30.2991,"la2":30.254,"lo1":-89.0895,"lo2":-89.0444,"dy":0.0017,"dx":0.0017,"nx":28,"ny":28,"refTime":"2025-03-21T03:00:00:Z","depth":0,"parameterNumber":3,"parameterNumberName":"V-component_of_WINDS"},"data":[0,0,0,0,0,0,0,0,0,0,0,0,0,0,0,0,0,0,0,0,0,0,0,0,0,0,0,0,0,0,0,0,0,0,0,0,0,0,0,0,0,0,0,0,0,0,0,0,0,0,0,0,0,0,0,0,0,0,4.8184,4.8184,0,4.8156,4.8156,4.8155,4.8138,4.8138,4.8138,4.8137,4.8104,4.8103,4.8102,0,0,0,0,0,0,0,0,0,0,0,0,0,4.822,4.822,4.8184,4.8184,4.8184,4.8156,4.8156,4.8155,4.8138,4.8138,4.8138,4.8137,4.8104,4.8103,4.8102,0,0,0,0,0,0,0,0,0,0,0,0,0,4.8199,4.822,4.8184,4.8172,4.817,4.8156,4.8156,4.8155,4.8138,4.8138,4.8137,4.8137,4.8105,4.8103,4.8102,4.8097,0,0,4.8098,4.8098,0,0,0,0,0,0,0,0,4.8201,4.8198,4.8174,4.8173,4.8171,4.815,4.8156,4.8135,4.8138,4.815,4.8137,4.8137,4.8119,4.8117,4.8112,4.8095,4.8094,4.8098,4.8098,4.8097,4.8097,0,0,0,0,0,0,0,4.8202,4.8199,4.8173,4.8174,4.8172,4.8166,4.8163,4.8152,4.8135,4.8149,4.8148,4.8145,4.8118,4.8113,4.8111,4.8093,4.8098,4.8097,4.8096,4.8096,4.8072,4.8072,0,0,0,0,0,0,4.8206,4.8201,4.8174,4.8172,4.8186,4.8166,4.8162,4.8157,4.8136,4.8132,4.8145,4.8144,4.8115,4.8112,4.8109,4.8102,4.8097,4.8096,4.8095,4.8072,4.8072,4.8072,0,0,0,0,0,0,4.8207,4.8204,4.8175,4.8186,4.8182,4.8165,4.8159,4.8156,4.8151,4.8133,4.8129,4.8142,4.8115,4.8111,4.8101,4.8101,4.8095,4.8094,4.8072,4.8072,4.8072,4.8088,0,0,0,0,0,0,4.8208,4.8204,4.8203,4.8186,4.8181,4.8168,4.8159,4.8156,4.8149,4.8148,4.8129,4.8126,4.8114,4.8103,4.8099,4.8099,4.8093,4.8072,4.8072,4.8072,4.8087,4.8088,4.809,0,0,0,0,0,4.8209,4.8207,4.8203,4.82,4.818,4.8168,4.8165,4.8153,4.815,4.8147,4.8136,4.8127,4.8102,4.8102,4.8098,4.8097,4.8072,4.8072,4.8072,4.8087,4.8088,4.8089,0,0,0,0,0,0,4.8223,4.8205,4.82,4.8192,4.8182,4.8165,4.8162,4.8155,4.8144,4.8143,4.8127,4.8123,4.8114,4.8104,4.8105,4.8091,4.8085,4.8085,4.8098,4.8099,4.81,4.8102,4.8092,0,0,0,0,0,4.8225,4.8219,4.8203,4.8198,4.8193,4.8179,4.8173,4.8165,4.8153,4.8148,4.8135,4.8123,4.8112,4.8105,4.8094,4.8086,4.8081,4.8083,4.8085,4.8086,4.8085,4.8081,4.8081,4.8073,4.8073,4.8073,0,0,4.8229,4.8219,4.8215,4.82,4.8191,4.8184,4.8175,4.8167,4.8161,4.8146,4.8136,4.8126,4.8111,4.8102,4.8097,4.8094,4.8087,4.8086,4.8087,4.8086,4.8081,4.8082,4.8082,4.8073,4.8073,4.8073,0,0,4.8234,4.8225,4.822,4.8212,4.8199,4.819,4.8189,4.8173,4.8166,4.8156,4.8145,4.8137,4.8119,4.8109,4.8101,4.8103,4.8094,4.81,4.8106,4.8101,4.8102,4.8103,4.8103,4.8104,4.81,4.81,4.81,0,4.824,4.8229,4.8218,4.8212,4.8205,4.8193,4.8188,4.818,4.8163,4.8159,4.8155,4.8133,4.8122,4.8111,4.8111,4.8106,4.8103,4.8102,4.8103,4.8104,4.8104,4.8104,4.8104,4.81,4.81,4.81,4.81,0,4.8238,4.8231,4.8229,4.8215,4.8208,4.8202,4.8189,4.8184,4.8176,4.8167,4.8157,4.8143,4.813,4.8127,4.8118,4.8114,4.8112,4.8106,4.81,4.8106,4.8106,4.8106,4.8102,4.8101,4.8101,4.8101,0,0,4.8249,4.8231,4.823,4.8224,4.8209,4.8203,4.8196,4.8184,4.818,4.8169,4.8162,4.8148,4.8143,4.8134,4.8125,4.8121,4.8124,4.8116,4.8115,4.8118,4.8118,4.8123,4.8123,4.8118,4.8118,4.8118,4.8119,0,4.8251,4.824,4.823,4.8222,4.8215,4.8204,4.8198,4.8188,4.8179,4.8171,4.8161,4.8151,4.8145,4.814,4.8136,4.8124,4.8124,4.8124,4.8111,4.8111,4.8115,4.8123,4.8127,4.8129,4.8119,4.8119,4.8119,0,4.8251,4.8243,4.8235,4.8222,4.8218,4.8213,4.8202,4.8195,4.8183,4.8177,4.8169,4.8159,4.8151,4.8146,4.8134,4.8135,4.8129,4.8122,4.8122,4.812,4.8115,4.8121,4.813,4.813,4.8119,4.8119,4.8119,0,4.826,4.8246,4.824,4.8235,4.8219,4.8216,4.8209,4.8198,4.8192,4.8181,4.8177,4.8166,4.8159,4.815,4.8138,4.8136,4.8127,4.8121,4.8121,4.8122,4.8119,4.812,4.8127,4.8116,4.8116,4.8116,4.8116,0,4.8263,4.8258,4.8244,4.824,4.8234,4.8223,4.8217,4.8209,4.8199,4.8193,4.8182,4.8176,4.816,4.8152,4.8142,4.8133,4.813,4.8125,4.8122,4.8126,4.8126,4.8121,4.812,4.8116,4.8116,4.8116,4.8116,0,4.8272,4.8262,4.8254,4.8241,4.8237,4.8234,4.8221,4.8217,4.8208,4.82,4.8197,4.8183,4.8173,4.816,4.8145,4.8139,4.8131,4.8127,4.8136,4.8134,4.8135,4.8135,4.8139,4.8139,4.8128,4.8129,4.8129,0,4.8274,4.8271,4.8257,4.8253,4.8247,4.824,4.8234,4.8223,4.8217,4.8204,4.82,4.819,4.8181,4.8165,4.8153,4.8141,4.8137,4.8139,4.8135,4.8139,4.8137,4.8137,4.8137,4.814,4.814,4.814,4.8141,0,4.8279,4.8275,4.8268,4.8259,4.8253,4.8245,4.8237,4.8234,4.822,4.8214,4.8205,4.8198,4.8184,4.8173,4.8161,4.8152,4.8144,4.8142,4.8142,4.8145,4.815,4.8147,4.8139,4.8142,4.8142,4.8142,4.8142,4.8142,4.8285,4.8281,4.8272,4.8264,4.8257,4.825,4.8245,4.8237,4.8229,4.8218,4.8211,4.8202,4.819,4.8173,4.8165,4.8157,4.8154,4.8153,4.8152,4.8152,4.8153,4.8152,4.8154,4.8154,4.8154,4.8154,4.8154,0,4.829,4.8283,4.8277,4.8266,4.826,4.8255,4.8245,4.824,4.8233,4.8223,4.8215,4.8204,4.8194,4.8182,4.8171,4.8167,4.8163,4.8164,4.8164,4.8162,4.8157,4.8159,4.8168,4.8168,4.8168,4.8168,4.8168,4.8168,4.8291,4.8285,4.828,4.827,4.8264,4.8256,4.8251,4.8244,4.8237,4.8225,4.8218,4.821,4.8199,4.8188,4.8178,4.8175,4.8171,4.8174,4.8169,4.8164,4.8163,4.8161,4.8163,4.8173,4.8173,4.8175,4.8175,4.8175]}]]